Whiting Fld NAS, FL

3:22 PM CDT on May 24, 2017 (GMT -0500)
Whiting Field Naval Air Station (North)

Weather History for KNSE - December, 2013

Change the Weather History Date:

Sunday, December 22, 2013

  Actual Average Record
Temperature  
Mean Temperature 65 °F -  
Max Temperature 75 °F 58 °F 80 °F (2010)
Min Temperature 54 °F 40 °F 26 °F (2000)
Growing Degree Days 15 (Base 50)    
Moisture  
Dew Point 62 °F    
Average Humidity 89    
Maximum Humidity 94    
Minimum Humidity 84    
Precipitation  
Precipitation 0.09 in - - ()
Sea Level Pressure  
Sea Level Pressure 29.96 in    
Wind  
Wind Speed 16 mph (NW)    
Max Wind Speed 24 mph    
Max Gust Speed 36 mph    
Visibility 6 miles    
Events Rain , Thunderstorm    
Averages and records for this station are not official NWS values.
T = Trace of Precipitation, MM = Missing Value Source: NWS Daily Summary

Daily Weather History Graph

Daily Weather History Graph

Search for Another Location

Airport or City:

Trip Planner

Search our weather history database for the weather conditions in past years. The results will help you decide how hot, cold, wet, or windy it might be!

Date:

Astronomy

Dec. 22, 2013 Rise Set
Actual Time 6:42 AM CST 4:51 PM CST
Civil Twilight 6:15 AM CST 5:18 PM CST
Nautical Twilight 5:45 AM CST 5:48 PM CST
Astronomical Twilight 5:15 AM CST 6:17 PM CST
Moon 9:44 PM CST (12/22) 9:55 AM CST (12/22)
Length of Visible Light 11h 02m
Length of Day
10h 09m
Waning Gibbous, 76% of the Moon is Illuminated
Dec 22
Waning Gibbous
Dec 25
Last Quarter
Jan 1
New
Jan 7
First Quarter
Jan 15
Full

Hourly Weather History & Observations

Time (CST) Temp. Dew Point Humidity Pressure Visibility Wind Dir Wind Speed Gust Speed Precip Events Conditions
12:13 AM 73.9 °F 70.0 °F 87% 29.93 in 8.0 mi SSE 21.9 mph 29.9 mph N/A   Overcast
12:35 AM 73.9 °F 70.0 °F 87% 29.93 in 8.0 mi SSE 19.6 mph 28.8 mph N/A   Overcast
12:56 AM 73.9 °F 70.0 °F 87% 29.88 in 7.0 mi South 16.1 mph 27.6 mph N/A   Overcast
1:35 AM 73.9 °F 69.1 °F 85% 29.92 in 8.0 mi SSE 23.0 mph 31.1 mph N/A   Overcast
1:56 AM 73.9 °F 69.1 °F 85% 29.87 in 8.0 mi South 19.6 mph 33.4 mph N/A   Overcast
2:56 AM 73.9 °F 69.1 °F 85% 29.88 in 8.0 mi South 21.9 mph 32.2 mph N/A   Overcast
3:56 AM 73.9 °F 70.0 °F 87% 29.88 in 7.0 mi South 18.4 mph 27.6 mph N/A   Overcast
4:56 AM 73.9 °F 70.0 °F 87% 29.85 in 7.0 mi South 24.2 mph 33.4 mph N/A   Overcast
5:56 AM 73.9 °F 70.0 °F 87% 29.87 in 6.0 mi South 23.0 mph 31.1 mph N/A   Overcast
6:56 AM 73.9 °F 70.0 °F 87% 29.90 in 5.0 mi South 17.3 mph 28.8 mph N/A   Overcast
7:56 AM 73.0 °F 70.0 °F 90% 29.92 in 3.0 mi South 19.6 mph 28.8 mph 0.00 in Rain Light Rain
8:56 AM 73.9 °F 70.0 °F 87% 29.94 in 4.0 mi South 21.9 mph 35.7 mph 0.00 in   Overcast
9:56 AM 75.0 °F 70.0 °F 84% 29.94 in 5.0 mi South 21.9 mph 31.1 mph N/A   Haze
10:03 AM 75.0 °F 71.1 °F 87% 29.98 in 5.0 mi South 17.3 mph 31.1 mph N/A   Overcast
10:56 AM 75.0 °F 71.1 °F 87% 29.94 in 5.0 mi South 19.6 mph - N/A   Overcast
11:56 AM 75.0 °F 71.1 °F 87% 29.91 in 5.0 mi South 19.6 mph 27.6 mph 0.00 in   Overcast
12:56 PM 75.0 °F 70.0 °F 84% 29.89 in 5.0 mi South 23.0 mph 28.8 mph N/A   Haze
1:56 PM 75.0 °F 70.0 °F 84% 29.89 in 6.0 mi South 19.6 mph 28.8 mph 0.00 in   Haze
2:56 PM 63.0 °F 59.0 °F 87% 29.90 in 9.0 mi Variable 4.6 mph - N/A   Overcast
3:35 PM 63.0 °F 60.1 °F 90% 29.94 in 10.0 mi NW 5.8 mph - N/A Thunderstorm Thunderstorm
3:56 PM 63.0 °F 60.1 °F 90% 29.91 in 10.0 mi Variable 5.8 mph - 0.00 in   Overcast
4:07 PM 62.1 °F 59.0 °F 90% 29.94 in 0.8 mi NNW 4.6 mph - 0.08 in Rain Rain
4:14 PM 62.1 °F 60.1 °F 93% 29.95 in 3.0 mi North 4.6 mph - 0.09 in Rain Rain
4:20 PM 62.1 °F 60.1 °F 93% 29.95 in 5.0 mi NNW 6.9 mph - 0.16 in Rain Rain
4:35 PM 62.1 °F 60.1 °F 93% 29.95 in 3.0 mi North 8.1 mph - 0.19 in Rain Rain
4:43 PM 62.1 °F 60.1 °F 93% 29.97 in 4.0 mi NW 12.7 mph - 0.20 in Rain Light Rain
4:54 PM 60.8 °F 59.0 °F 94% 29.97 in 6.0 mi NNW 12.7 mph - 0.20 in Thunderstorm Overcast
5:02 PM 61.0 °F 59.0 °F 93% 29.97 in 3.0 mi NNW 8.1 mph 18.4 mph 0.01 in Rain Rain
5:09 PM 61.0 °F 57.9 °F 90% 29.97 in 5.0 mi NW 6.9 mph - 0.01 in Rain Light Rain
5:16 PM 61.0 °F 57.9 °F 90% 29.97 in 6.0 mi NNW 9.2 mph - 0.02 in Rain Light Rain
5:22 PM 61.0 °F 57.9 °F 90% 29.98 in 7.0 mi NNW 10.4 mph - 0.02 in Rain Light Rain
5:30 PM 61.0 °F 57.9 °F 90% 29.99 in 7.0 mi NW 12.7 mph - 0.04 in   Overcast
5:34 PM 61.0 °F 57.9 °F 90% 30.00 in 4.0 mi NW 11.5 mph - 0.08 in Rain Rain
5:45 PM 60.1 °F 57.0 °F 90% 30.00 in 6.0 mi NNW 11.5 mph - 0.08 in Rain Light Rain
5:56 PM 60.1 °F 57.0 °F 90% 29.97 in 10.0 mi NNW 12.7 mph 20.7 mph 0.08 in   Overcast
6:26 PM 59.0 °F 55.9 °F 90% 30.04 in 7.0 mi NNW 12.7 mph 23.0 mph N/A Rain Light Rain
6:48 PM 59.0 °F 55.9 °F 90% 30.06 in 10.0 mi NW 13.8 mph - N/A   Overcast
6:56 PM 57.9 °F 55.0 °F 90% 30.02 in 7.0 mi NW 11.5 mph 18.4 mph N/A Rain Light Rain
7:05 PM 57.9 °F 55.0 °F 90% 30.06 in 7.0 mi NNW 10.4 mph 19.6 mph N/A   Overcast
7:27 PM 57.9 °F 54.0 °F 87% 30.06 in 10.0 mi NNW 13.8 mph - N/A   Overcast
7:39 PM 57.0 °F 55.0 °F 93% 30.06 in 10.0 mi North 10.4 mph - N/A   Overcast
7:56 PM 57.0 °F 55.0 °F 93% 30.01 in 10.0 mi North 6.9 mph - N/A   Overcast
8:56 PM 55.9 °F 52.0 °F 87% 30.03 in 6.0 mi North 6.9 mph - N/A Rain Light Rain
9:56 PM 55.0 °F 52.0 °F 89% 30.03 in 6.0 mi North 4.6 mph - N/A Rain Light Rain
10:56 PM 55.0 °F 52.0 °F 89% 30.05 in 10.0 mi NNW 5.8 mph - N/A Rain Light Rain
11:56 PM 54.0 °F 51.1 °F 90% 30.06 in 6.0 mi North 6.9 mph - 0.01 in Rain Light Rain